| time (UTC) | temp F | wind direction | speed MPH | gust MPH | rain 1hr in | rain 24hr in | rain mn in | humidity % | barometer mb |
| 20260507155348 | 58 | 348 | 9.0 | 11.0 | 0.00 | 0.00 | 0.00 | 44 | 1015.5 |
| 20260507154845 | 58 | 344 | 3.0 | 6.0 | 0.00 | 0.00 | 0.00 | 43 | 1015.4 |
| 20260507154342 | 58 | 105 | 3.0 | 4.0 | 0.00 | 0.00 | 0.00 | 51 | 1015.4 |
| 20260507153839 | 58 | 32 | 2.0 | 3.0 | 0.00 | 0.00 | 0.00 | 46 | 1015.5 |
| 20260507153336 | 58 | 27 | 6.0 | 8.0 | 0.00 | 0.00 | 0.00 | 43 | 1015.5 |
| 20260507152832 | 57 | 91 | 2.0 | 9.0 | 0.00 | 0.00 | 0.00 | 53 | 1015.1 |
| 20260507152328 | 58 | 136 | 3.0 | 6.0 | 0.00 | 0.00 | 0.00 | 44 | 1015.4 |
| 20260507151825 | 57 | 97 | 5.0 | 8.0 | 0.00 | 0.00 | 0.00 | 46 | 1015.4 |
| 20260507151321 | 56 | 340 | 4.0 | 8.0 | 0.00 | 0.00 | 0.00 | 43 | 1014.9 |
| 20260507150818 | 56 | 12 | 6.0 | 7.0 | 0.00 | 0.00 | 0.00 | 45 | 1015.2 |
| 20260507150315 | 56 | 28 | 2.0 | 7.0 | 0.00 | 0.00 | 0.00 | 46 | 1015.2 |
| 20260507145811 | 58 | 38 | 6.0 | 7.0 | 0.00 | 0.00 | 0.00 | 44 | 1015.1 |
| 20260507145308 | 56 | 97 | 2.0 | 3.0 | 0.00 | 0.00 | 0.00 | 46 | 1015.2 |
| 20260507144805 | 57 | 68 | 4.0 | 8.0 | 0.00 | 0.00 | 0.00 | 46 | 1015.2 |
| 20260507144302 | 57 | 94 | 3.0 | 4.0 | 0.00 | 0.00 | 0.00 | 44 | 1015.2 |
| 20260507143758 | 57 | 73 | 5.0 | 6.0 | 0.00 | 0.00 | 0.00 | 50 | 1014.9 |
| 20260507143256 | 56 | 92 | 2.0 | 4.0 | 0.00 | 0.00 | 0.00 | 51 | 1015.2 |
| 20260507142751 | 56 | 328 | 2.0 | 4.0 | 0.00 | 0.00 | 0.00 | 47 | 1015.1 |
| 20260507142248 | 56 | 77 | 6.0 | 7.0 | 0.00 | 0.00 | 0.00 | 50 | 1015.3 |
| 20260507141744 | 56 | 19 | 2.0 | 7.0 | 0.00 | 0.00 | 0.00 | 49 | 1015.0 |
| 20260507141242 | 55 | 52 | 3.0 | 4.0 | 0.00 | 0.00 | 0.00 | 49 | 1015.1 |
| 20260507140738 | 55 | 100 | 5.0 | 7.0 | 0.00 | 0.00 | 0.00 | 51 | 1015.1 |
| 20260507140236 | 55 | 80 | 4.0 | 4.0 | 0.00 | 0.00 | 0.00 | 54 | 1015.3 |
| 20260507135732 | 55 | 63 | 3.0 | 3.0 | 0.00 | 0.00 | 0.00 | 51 | 1015.2 |
| 20260507135230 | 54 | 131 | 5.0 | 7.0 | 0.00 | 0.00 | 0.00 | 53 | 1015.3 |
| 20260507134726 | 53 | 110 | 6.0 | 9.0 | 0.00 | 0.00 | 0.00 | 50 | 1015.3 |
| 20260507134222 | 53 | 93 | 9.0 | 10.0 | 0.00 | 0.00 | 0.00 | 49 | 1015.3 |
| 20260507133718 | 54 | 104 | 4.0 | 8.0 | 0.00 | 0.00 | 0.00 | 52 | 1015.0 |
| 20260507133215 | 53 | 113 | 4.0 | 7.0 | 0.00 | 0.00 | 0.00 | 55 | 1015.3 |
| 20260507132713 | 53 | 115 | 6.0 | 8.0 | 0.00 | 0.00 | 0.00 | 58 | 1015.4 |
| 20260507132209 | 52 | 105 | 2.0 | 9.0 | 0.00 | 0.00 | 0.00 | 59 | 1015.1 |
| 20260507131706 | 53 | 113 | 4.0 | 9.0 | 0.00 | 0.00 | 0.00 | 57 | 1015.2 |
| 20260507131203 | 52 | 120 | 5.0 | 7.0 | 0.00 | 0.00 | 0.00 | 62 | 1015.3 |
| 20260507130700 | 52 | 103 | 5.0 | 9.0 | 0.00 | 0.00 | 0.00 | 60 | 1015.3 |
| 20260507130157 | 52 | 90 | 6.0 | 7.0 | 0.00 | 0.00 | 0.00 | 60 | 1015.4 |
| 20260507125656 | 52 | 91 | 2.0 | 6.0 | 0.00 | 0.00 | 0.00 | 64 | 1015.2 |
| 20260507125153 | 51 | 96 | 3.0 | 3.0 | 0.00 | 0.00 | 0.00 | 65 | 1015.3 |
| 20260507124649 | 51 | 116 | 3.0 | 6.0 | 0.00 | 0.00 | 0.00 | 64 | 1015.2 |
| 20260507124147 | 51 | 128 | 3.0 | 4.0 | 0.00 | 0.00 | 0.00 | 64 | 1015.2 |
| 20260507123645 | 50 | 102 | 3.0 | 6.0 | 0.00 | 0.00 | 0.00 | 65 | 1015.4 |
| 20260507123142 | 51 | 96 | 4.0 | 4.0 | 0.00 | 0.00 | 0.00 | 63 | 1015.6 |
| 20260507122637 | 50 | 112 | 2.0 | 4.0 | 0.00 | 0.00 | 0.00 | 68 | 1015.2 |
| 20260507122133 | 50 | 100 | 3.0 | 6.0 | 0.00 | 0.00 | 0.00 | 68 | 1015.3 |
| 20260507121629 | 50 | 70 | 4.0 | 6.0 | 0.00 | 0.00 | 0.00 | 68 | 1015.5 |
| 20260507121125 | 49 | 50 | 0.0 | 2.0 | 0.00 | 0.00 | 0.00 | 71 | 1015.5 |
| 20260507120622 | 49 | 109 | 1.0 | 3.0 | 0.00 | 0.00 | 0.00 | 67 | 1015.6 |
| 20260507120118 | 50 | 66 | 2.0 | 3.0 | 0.00 | 0.00 | 0.00 | 68 | 1015.3 |
| 20260507115615 | 49 | 88 | 1.0 | 2.0 | 0.00 | 0.00 | 0.00 | 70 | 1015.2 |
| 20260507115111 | 49 | 36 | 0.0 | 1.0 | 0.00 | 0.00 | 0.00 | 70 | 1015.3 |
| 20260507114607 | 49 | 72 | 2.0 | 2.0 | 0.00 | 0.00 | 0.00 | 69 | 1015.3 |
| 20260507114104 | 49 | 28 | 0.0 | 3.0 | 0.00 | 0.00 | 0.00 | 71 | 1015.1 |
| 20260507113601 | 48 | 102 | 0.0 | 2.0 | 0.00 | 0.00 | 0.00 | 74 | 1015.3 |
| 20260507113058 | 47 | 18 | 0.0 | 1.0 | 0.00 | 0.00 | 0.00 | 74 | 1015.1 |
| 20260507112556 | 47 | 54 | 0.0 | 3.0 | 0.00 | 0.00 | 0.00 | 74 | 1015.2 |
| 20260507112053 | 47 | 45 | 0.0 | 1.0 | 0.00 | 0.00 | 0.00 | 75 | 1015.2 |
| 20260507111550 | 46 | 44 | 0.0 | 1.0 | 0.00 | 0.00 | 0.00 | 77 | 1014.8 |
| 20260507111046 | 46 | 42 | 0.0 | 0.0 | 0.00 | 0.00 | 0.00 | 79 | 1014.9 |
| 20260507110543 | 45 | 43 | 0.0 | 0.0 | 0.00 | 0.00 | 0.00 | 80 | 1014.7 |
| 20260507110039 | 45 | 44 | 0.0 | 0.0 | 0.00 | 0.00 | 0.00 | 82 | 1014.8 |
| 20260507105536 | 44 | 44 | 0.0 | 0.0 | 0.00 | 0.00 | 0.00 | 83 | 1014.8 |
| 20260507105032 | 44 | 45 | 1.0 | 1.0 | 0.00 | 0.00 | 0.00 | 84 | 1014.7 |
| 20260507104530 | 42 | 58 | 1.0 | 2.0 | 0.00 | 0.00 | 0.00 | 87 | 1014.6 |
| 20260507104026 | 42 | 77 | 0.0 | 1.0 | 0.00 | 0.00 | 0.00 | 88 | 1014.7 |
| 20260507103522 | 42 | 78 | 0.0 | 1.0 | 0.00 | 0.00 | 0.00 | 88 | 1014.4 |
| 20260507103019 | 42 | 83 | 0.0 | 0.0 | 0.00 | 0.00 | 0.00 | 88 | 1014.4 |
| 20260507102516 | 42 | 84 | 0.0 | 0.0 | 0.00 | 0.00 | 0.00 | 88 | 1014.4 |
| 20260507102012 | 42 | 83 | 0.0 | 0.0 | 0.00 | 0.00 | 0.00 | 88 | 1014.2 |
| 20260507101507 | 43 | 83 | 0.0 | 0.0 | 0.00 | 0.00 | 0.00 | 87 | 1014.3 |
| 20260507101004 | 43 | 84 | 0.0 | 1.0 | 0.00 | 0.00 | 0.00 | 88 | 1014.2 |
| 20260507100501 | 42 | 86 | 0.0 | 0.0 | 0.00 | 0.00 | 0.00 | 87 | 1014.5 |
| 20260507095959 | 43 | 89 | 0.0 | 0.0 | 0.00 | 0.00 | 0.00 | 86 | 1014.3 |
| 20260507095457 | 43 | 89 | 0.0 | 0.0 | 0.00 | 0.00 | 0.00 | 87 | 1014.2 |
| 20260507094953 | 43 | 89 | 0.0 | 0.0 | 0.00 | 0.00 | 0.00 | 86 | 1014.3 |
| 20260507094449 | 44 | 89 | 0.0 | 0.0 | 0.00 | 0.00 | 0.00 | 85 | 1014.5 |
| 20260507093947 | 44 | 89 | 1.0 | 1.0 | 0.00 | 0.00 | 0.00 | 85 | 1014.5 |
| 20260507093444 | 44 | 90 | 1.0 | 1.0 | 0.00 | 0.00 | 0.00 | 86 | 1014.5 |
| 20260507092943 | 44 | 90 | 1.0 | 1.0 | 0.00 | 0.00 | 0.00 | 87 | 1014.4 |
| 20260507092438 | 44 | 91 | 1.0 | 1.0 | 0.00 | 0.00 | 0.00 | 86 | 1014.3 |
| 20260507091936 | 44 | 91 | 0.0 | 0.0 | 0.00 | 0.00 | 0.00 | 84 | 1014.2 |
| 20260507091432 | 44 | 91 | 0.0 | 0.0 | 0.00 | 0.00 | 0.00 | 84 | 1014.4 |
| 20260507090928 | 44 | 91 | 0.0 | 0.0 | 0.00 | 0.00 | 0.00 | 84 | 1014.5 |
| 20260507090424 | 45 | 91 | 0.0 | 0.0 | 0.00 | 0.00 | 0.00 | 82 | 1014.4 |
| 20260507085921 | 45 | 92 | 0.0 | 0.0 | 0.00 | 0.00 | 0.00 | 81 | 1014.1 |
| 20260507085418 | 46 | 91 | 0.0 | 0.0 | 0.00 | 0.00 | 0.00 | 81 | 1014.0 |
| 20260507084915 | 46 | 92 | 1.0 | 1.0 | 0.00 | 0.00 | 0.00 | 82 | 1013.9 |
| 20260507084412 | 46 | 92 | 0.0 | 0.0 | 0.00 | 0.00 | 0.00 | 82 | 1014.1 |
| 20260507083909 | 46 | 92 | 0.0 | 0.0 | 0.00 | 0.00 | 0.00 | 81 | 1014.1 |
| 20260507083405 | 46 | 92 | 0.0 | 0.0 | 0.00 | 0.00 | 0.00 | 80 | 1014.4 |
| 20260507082901 | 46 | 91 | 0.0 | 0.0 | 0.00 | 0.00 | 0.00 | 80 | 1014.0 |
| 20260507082357 | 46 | 91 | 0.0 | 0.0 | 0.00 | 0.00 | 0.00 | 80 | 1014.0 |
| 20260507081855 | 46 | 68 | 0.0 | 0.0 | 0.00 | 0.00 | 0.00 | 79 | 1013.9 |
| 20260507081350 | 46 | 42 | 0.0 | 0.0 | 0.00 | 0.00 | 0.00 | 79 | 1014.0 |
| 20260507080848 | 46 | 61 | 0.0 | 0.0 | 0.00 | 0.00 | 0.00 | 80 | 1014.0 |
| 20260507080344 | 47 | 61 | 0.0 | 1.0 | 0.00 | 0.00 | 0.00 | 80 | 1013.9 |
| 20260507075839 | 47 | 61 | 0.0 | 1.0 | 0.00 | 0.00 | 0.00 | 79 | 1013.9 |
| 20260507075335 | 47 | 63 | 0.0 | 0.0 | 0.00 | 0.00 | 0.00 | 79 | 1013.7 |
| 20260507074832 | 47 | 63 | 0.0 | 0.0 | 0.00 | 0.00 | 0.00 | 78 | 1013.9 |
| 20260507074329 | 48 | 62 | 0.0 | 0.0 | 0.00 | 0.00 | 0.00 | 78 | 1013.8 |
| 20260507073826 | 48 | 62 | 0.0 | 0.0 | 0.00 | 0.00 | 0.00 | 78 | 1013.9 |
| 20260507073323 | 48 | 62 | 0.0 | 1.0 | 0.00 | 0.00 | 0.00 | 78 | 1013.9 |
| 20260507072820 | 48 | 62 | 0.0 | 1.0 | 0.00 | 0.00 | 0.00 | 78 | 1014.1 |
| 20260507072318 | 48 | 62 | 0.0 | 0.0 | 0.00 | 0.00 | 0.00 | 77 | 1013.9 |
| 20260507071815 | 48 | 62 | 0.0 | 0.0 | 0.00 | 0.00 | 0.00 | 77 | 1014.1 |
| 20260507071312 | 49 | 64 | 1.0 | 1.0 | 0.00 | 0.00 | 0.00 | 78 | 1013.8 |
| 20260507070808 | 49 | 65 | 0.0 | 0.0 | 0.00 | 0.00 | 0.00 | 77 | 1014.0 |
| 20260507070306 | 49 | 66 | 1.0 | 1.0 | 0.00 | 0.00 | 0.00 | 78 | 1013.9 |
| 20260507065802 | 48 | 66 | 1.0 | 1.0 | 0.00 | 0.00 | 0.00 | 77 | 1014.0 |
| 20260507065259 | 48 | 68 | 0.0 | 0.0 | 0.00 | 0.00 | 0.00 | 78 | 1013.9 |
| 20260507064756 | 48 | 68 | 1.0 | 1.0 | 0.00 | 0.00 | 0.00 | 77 | 1013.9 |
| 20260507064255 | 48 | 69 | 1.0 | 1.0 | 0.00 | 0.00 | 0.00 | 78 | 1014.3 |
| 20260507063752 | 49 | 71 | 1.0 | 1.0 | 0.00 | 0.00 | 0.00 | 77 | 1013.9 |
| 20260507063249 | 49 | 102 | 0.0 | 1.0 | 0.00 | 0.00 | 0.00 | 77 | 1014.0 |
| 20260507062745 | 49 | 45 | 1.0 | 1.0 | 0.00 | 0.00 | 0.00 | 77 | 1014.0 |
| 20260507062242 | 49 | 44 | 1.0 | 2.0 | 0.00 | 0.00 | 0.00 | 76 | 1014.0 |
| 20260507061741 | 49 | 61 | 2.0 | 2.0 | 0.00 | 0.00 | 0.00 | 76 | 1014.2 |
| 20260507061238 | 48 | 69 | 1.0 | 1.0 | 0.00 | 0.00 | 0.00 | 78 | 1014.3 |
| 20260507060737 | 49 | 75 | 1.0 | 1.0 | 0.00 | 0.00 | 0.00 | 79 | 1014.5 |
| 20260507060233 | 49 | 77 | 0.0 | 1.0 | 0.00 | 0.00 | 0.00 | 77 | 1014.6 |
| 20260507055729 | 49 | 78 | 0.0 | 0.0 | 0.00 | 0.00 | 0.00 | 76 | 1014.3 |
| 20260507055225 | 49 | 78 | 1.0 | 1.0 | 0.00 | 0.00 | 0.00 | 77 | 1014.4 |
| 20260507054721 | 49 | 78 | 1.0 | 1.0 | 0.00 | 0.00 | 0.00 | 78 | 1014.4 |
| 20260507054218 | 49 | 78 | 0.0 | 0.0 | 0.00 | 0.00 | 0.00 | 77 | 1014.0 |
| 20260507053716 | 49 | 84 | 0.0 | 0.0 | 0.00 | 0.00 | 0.00 | 77 | 1013.9 |
| 20260507053213 | 49 | 84 | 0.0 | 0.0 | 0.00 | 0.00 | 0.00 | 77 | 1014.2 |
| 20260507052712 | 50 | 84 | 0.0 | 0.0 | 0.00 | 0.00 | 0.00 | 77 | 1014.1 |
| 20260507052207 | 50 | 84 | 0.0 | 0.0 | 0.00 | 0.00 | 0.00 | 77 | 1014.1 |
| 20260507051706 | 50 | 84 | 1.0 | 1.0 | 0.00 | 0.00 | 0.00 | 78 | 1014.0 |
| 20260507051202 | 50 | 77 | 0.0 | 0.0 | 0.00 | 0.00 | 0.00 | 78 | 1014.2 |
| 20260507050659 | 49 | 77 | 0.0 | 0.0 | 0.00 | 0.00 | 0.00 | 78 | 1014.3 |
| 20260507050156 | 49 | 76 | 0.0 | 0.0 | 0.00 | 0.00 | 0.00 | 79 | 1014.4 |
| 20260507045652 | 49 | 77 | 0.0 | 0.0 | 0.00 | 0.00 | 0.00 | 82 | 1014.2 |
| 20260507045149 | 49 | 77 | 0.0 | 0.0 | 0.00 | 0.00 | 0.00 | 86 | 1014.1 |
| 20260507044646 | 49 | 77 | 1.0 | 1.0 | 0.00 | 0.00 | 0.00 | 82 | 1014.0 |
| 20260507044143 | 49 | 76 | 0.0 | 0.0 | 0.00 | 0.00 | 0.00 | 80 | 1014.3 |
| 20260507043639 | 49 | 76 | 0.0 | 0.0 | 0.00 | 0.00 | 0.00 | 82 | 1014.2 |
| 20260507043136 | 50 | 76 | 0.0 | 0.0 | 0.00 | 0.00 | 0.00 | 80 | 1014.5 |
| 20260507042632 | 50 | 76 | 0.0 | 1.0 | 0.00 | 0.00 | 0.00 | 79 | 1014.5 |
| 20260507042127 | 50 | 76 | 0.0 | 0.0 | 0.00 | 0.00 | 0.00 | 78 | 1014.4 |
| 20260507041624 | 50 | 77 | 0.0 | 0.0 | 0.00 | 0.00 | 0.00 | 78 | 1014.6 |
| 20260507041121 | 50 | 76 | 0.0 | 0.0 | 0.00 | 0.00 | 0.00 | 77 | 1014.6 |
| 20260507040618 | 51 | 76 | 0.0 | 0.0 | 0.00 | 0.00 | 0.00 | 79 | 1014.5 |
| 20260507040114 | 51 | 76 | 0.0 | 0.0 | 0.00 | 0.00 | 0.00 | 76 | 1014.8 |
| 20260507035610 | 51 | 77 | 0.0 | 0.0 | 0.00 | 0.65 | 0.65 | 75 | 1014.9 |
| 20260507035107 | 51 | 76 | 0.0 | 0.0 | 0.00 | 0.65 | 0.65 | 75 | 1014.8 |
| 20260507034604 | 51 | 76 | 0.0 | 0.0 | 0.00 | 0.65 | 0.65 | 76 | 1014.9 |
| 20260507034102 | 51 | 76 | 0.0 | 0.0 | 0.00 | 0.65 | 0.65 | 76 | 1014.8 |
| 20260507033600 | 52 | 76 | 0.0 | 0.0 | 0.00 | 0.65 | 0.65 | 74 | 1014.7 |
| 20260507033056 | 52 | 76 | 0.0 | 0.0 | 0.00 | 0.65 | 0.65 | 74 | 1014.8 |
| 20260507032554 | 52 | 76 | 0.0 | 0.0 | 0.00 | 0.65 | 0.65 | 73 | 1014.6 |
| 20260507032050 | 52 | 77 | 0.0 | 0.0 | 0.00 | 0.65 | 0.65 | 73 | 1014.7 |
| 20260507031546 | 52 | 77 | 0.0 | 0.0 | 0.00 | 0.65 | 0.65 | 72 | 1014.7 |
| 20260507031043 | 52 | 77 | 0.0 | 0.0 | 0.00 | 0.65 | 0.65 | 73 | 1014.7 |
| 20260507030540 | 53 | 77 | 0.0 | 0.0 | 0.00 | 0.65 | 0.65 | 72 | 1014.6 |
| 20260507030038 | 53 | 77 | 0.0 | 0.0 | 0.00 | 0.65 | 0.65 | 72 | 1014.6 |
| 20260507025534 | 53 | 77 | 0.0 | 0.0 | 0.00 | 0.65 | 0.65 | 71 | 1014.5 |
| 20260507025032 | 53 | 77 | 1.0 | 1.0 | 0.00 | 0.65 | 0.65 | 71 | 1014.6 |
| 20260507024530 | 53 | 77 | 0.0 | 0.0 | 0.00 | 0.65 | 0.65 | 71 | 1014.2 |
| 20260507024026 | 54 | 77 | 0.0 | 1.0 | 0.00 | 0.65 | 0.65 | 70 | 1014.0 |
| 20260507023522 | 54 | 77 | 0.0 | 0.0 | 0.00 | 0.65 | 0.65 | 68 | 1014.1 |
| 20260507023020 | 54 | 78 | 1.0 | 1.0 | 0.00 | 0.65 | 0.65 | 68 | 1014.0 |
| 20260507022516 | 54 | 80 | 0.0 | 1.0 | 0.00 | 0.65 | 0.65 | 68 | 1014.1 |
| 20260507022012 | 55 | 95 | 1.0 | 1.0 | 0.00 | 0.65 | 0.65 | 67 | 1013.8 |
| 20260507021508 | 55 | 88 | 1.0 | 2.0 | 0.00 | 0.65 | 0.65 | 65 | 1013.8 |
| 20260507021005 | 55 | 10 | 0.0 | 2.0 | 0.00 | 0.65 | 0.65 | 65 | 1013.7 |
| 20260507020502 | 55 | 16 | 0.0 | 2.0 | 0.00 | 0.65 | 0.65 | 65 | 1013.6 |
| 20260507015959 | 55 | 39 | 1.0 | 1.0 | 0.00 | 0.65 | 0.65 | 63 | 1013.6 |
| 20260507015457 | 55 | 38 | 1.0 | 2.0 | 0.00 | 0.65 | 0.65 | 63 | 1013.5 |
| 20260507014954 | 56 | 358 | 0.0 | 1.0 | 0.00 | 0.65 | 0.65 | 63 | 1013.6 |
| 20260507014450 | 56 | 23 | 1.0 | 2.0 | 0.00 | 0.65 | 0.65 | 63 | 1013.7 |
| 20260507013946 | 56 | 46 | 0.0 | 1.0 | 0.00 | 0.65 | 0.65 | 64 | 1013.5 |
| 20260507013443 | 56 | 48 | 0.0 | 0.0 | 0.00 | 0.65 | 0.65 | 64 | 1013.6 |
| 20260507012941 | 56 | 48 | 2.0 | 6.0 | 0.00 | 0.65 | 0.65 | 63 | 1013.7 |
| 20260507012437 | 56 | 38 | 1.0 | 1.0 | 0.00 | 0.65 | 0.65 | 63 | 1013.5 |
| 20260507011934 | 56 | 37 | 2.0 | 2.0 | 0.00 | 0.65 | 0.65 | 63 | 1013.8 |
| 20260507011432 | 56 | 33 | 0.0 | 1.0 | 0.00 | 0.65 | 0.65 | 63 | 1013.3 |
| 20260507010931 | 56 | 46 | 0.0 | 0.0 | 0.00 | 0.65 | 0.65 | 64 | 1013.6 |
| 20260507010427 | 56 | 46 | 0.0 | 1.0 | 0.00 | 0.65 | 0.65 | 63 | 1013.8 |
| 20260507005924 | 56 | 45 | 0.0 | 1.0 | 0.00 | 0.65 | 0.65 | 64 | 1013.6 |
| 20260507005421 | 56 | 45 | 0.0 | 0.0 | 0.00 | 0.65 | 0.65 | 65 | 1013.7 |
| 20260507004917 | 56 | 45 | 0.0 | 0.0 | 0.00 | 0.65 | 0.65 | 66 | 1013.5 |
| 20260507004414 | 56 | 45 | 1.0 | 1.0 | 0.00 | 0.65 | 0.65 | 65 | 1013.6 |
| 20260507003912 | 56 | 45 | 0.0 | 0.0 | 0.00 | 0.65 | 0.65 | 63 | 1013.1 |
| 20260507003407 | 56 | 45 | 0.0 | 0.0 | 0.00 | 0.65 | 0.65 | 62 | 1013.5 |
| 20260507002902 | 56 | 46 | 0.0 | 0.0 | 0.00 | 0.65 | 0.65 | 61 | 1013.1 |
| 20260507002358 | 57 | 46 | 0.0 | 1.0 | 0.00 | 0.65 | 0.65 | 61 | 1013.0 |
| 20260507001856 | 57 | 46 | 0.0 | 1.0 | 0.00 | 0.65 | 0.65 | 60 | 1013.0 |
| 20260507001352 | 57 | 47 | 0.0 | 1.0 | 0.00 | 0.65 | 0.65 | 61 | 1013.0 |
| 20260507000849 | 57 | 49 | 2.0 | 3.0 | 0.00 | 0.65 | 0.65 | 59 | 1012.9 |
| 20260507000344 | 57 | 48 | 2.0 | 3.0 | 0.00 | 0.65 | 0.65 | 59 | 1012.9 |
| 20260506235841 | 57 | 48 | 1.0 | 2.0 | 0.00 | 0.65 | 0.65 | 61 | 1012.8 |
| 20260506235338 | 57 | 49 | 1.0 | 3.0 | 0.00 | 0.65 | 0.65 | 59 | 1012.9 |
| 20260506234834 | 57 | 35 | 1.0 | 1.0 | 0.00 | 0.65 | 0.65 | 59 | 1013.0 |
| 20260506234332 | 57 | 6 | 2.0 | 2.0 | 0.00 | 0.65 | 0.65 | 60 | 1013.1 |
| 20260506233830 | 57 | 345 | 2.0 | 2.0 | 0.00 | 0.65 | 0.65 | 62 | 1013.2 |
| 20260506233325 | 57 | 42 | 1.0 | 2.0 | 0.00 | 0.65 | 0.65 | 63 | 1012.7 |
| 20260506232822 | 57 | 39 | 1.0 | 6.0 | 0.00 | 0.65 | 0.65 | 61 | 1012.6 |
| 20260506232318 | 58 | 8 | 1.0 | 2.0 | 0.00 | 0.65 | 0.65 | 62 | 1012.8 |
| 20260506231815 | 58 | 52 | 0.0 | 1.0 | 0.00 | 0.65 | 0.65 | 60 | 1012.8 |
| 20260506231313 | 58 | 57 | 2.0 | 6.0 | 0.00 | 0.65 | 0.65 | 60 | 1012.5 |
| 20260506230810 | 58 | 41 | 4.0 | 7.0 | 0.00 | 0.65 | 0.65 | 60 | 1012.9 |
| 20260506230306 | 58 | 57 | 3.0 | 4.0 | 0.00 | 0.65 | 0.65 | 59 | 1012.6 |
| 20260506225803 | 58 | 75 | 2.0 | 3.0 | 0.00 | 0.65 | 0.65 | 60 | 1012.3 |
| 20260506225300 | 58 | 69 | 1.0 | 6.0 | 0.00 | 0.65 | 0.65 | 60 | 1012.3 |
| 20260506224756 | 58 | 80 | 5.0 | 6.0 | 0.00 | 0.65 | 0.65 | 60 | 1011.7 |
| 20260506224254 | 59 | 5 | 1.0 | 6.0 | 0.00 | 0.65 | 0.65 | 59 | 1012.2 |
| 20260506223750 | 59 | 41 | 0.0 | 7.0 | 0.00 | 0.65 | 0.65 | 61 | 1012.2 |
| 20260506223245 | 59 | 40 | 1.0 | 2.0 | 0.00 | 0.65 | 0.65 | 60 | 1012.5 |
| 20260506222743 | 60 | 91 | 1.0 | 2.0 | 0.00 | 0.65 | 0.65 | 60 | 1012.1 |
| 20260506222238 | 60 | 38 | 1.0 | 2.0 | 0.00 | 0.65 | 0.65 | 60 | 1012.1 |
| 20260506221737 | 60 | 76 | 0.0 | 2.0 | 0.00 | 0.65 | 0.65 | 63 | 1011.7 |
| 20260506221234 | 60 | 24 | 2.0 | 3.0 | 0.00 | 0.65 | 0.65 | 61 | 1012.1 |
| 20260506220731 | 60 | 88 | 0.0 | 1.0 | 0.00 | 0.65 | 0.65 | 65 | 1011.8 |
| 20260506220226 | 60 | 29 | 0.0 | 3.0 | 0.00 | 0.65 | 0.65 | 62 | 1011.7 |
| 20260506215723 | 60 | 51 | 1.0 | 2.0 | 0.00 | 0.65 | 0.65 | 62 | 1011.9 |
| 20260506215218 | 60 | 67 | 0.0 | 1.0 | 0.00 | 0.65 | 0.65 | 63 | 1011.8 |
| 20260506214715 | 60 | 31 | 1.0 | 2.0 | 0.00 | 0.65 | 0.65 | 64 | 1012.0 |
| 20260506214212 | 60 | 3 | 0.0 | 3.0 | 0.00 | 0.65 | 0.65 | 63 | 1012.4 |
| 20260506213710 | 60 | 42 | 2.0 | 3.0 | 0.00 | 0.65 | 0.65 | 61 | 1012.5 |
| 20260506213208 | 60 | 43 | 4.0 | 4.0 | 0.00 | 0.65 | 0.65 | 62 | 1012.4 |
| 20260506212705 | 60 | 5 | 3.0 | 4.0 | 0.00 | 0.65 | 0.65 | 63 | 1012.5 |
| 20260506212200 | 60 | 349 | 2.0 | 3.0 | 0.00 | 0.65 | 0.65 | 62 | 1012.4 |
| 20260506211656 | 60 | 350 | 1.0 | 2.0 | 0.00 | 0.65 | 0.65 | 64 | 1012.3 |
| 20260506211152 | 60 | 328 | 4.0 | 6.0 | 0.00 | 0.65 | 0.65 | 63 | 1012.3 |
| 20260506210649 | 60 | 332 | 5.0 | 6.0 | 0.00 | 0.65 | 0.65 | 61 | 1012.3 |
| 20260506210146 | 60 | 22 | 1.0 | 3.0 | 0.00 | 0.65 | 0.65 | 61 | 1012.2 |
| 20260506205644 | 60 | 358 | 2.0 | 3.0 | 0.00 | 0.65 | 0.65 | 60 | 1012.1 |
| 20260506205143 | 61 | 41 | 3.0 | 4.0 | 0.00 | 0.65 | 0.65 | 62 | 1012.3 |
| 20260506204642 | 60 | 13 | 1.0 | 1.0 | 0.00 | 0.65 | 0.65 | 67 | 1012.3 |
| 20260506204138 | 60 | 34 | 1.0 | 2.0 | 0.00 | 0.65 | 0.65 | 61 | 1012.4 |
| 20260506203637 | 60 | 34 | 1.0 | 2.0 | 0.00 | 0.65 | 0.65 | 60 | 1012.1 |
| 20260506203133 | 60 | 37 | 3.0 | 4.0 | 0.00 | 0.65 | 0.65 | 60 | 1012.0 |
| 20260506202632 | 61 | 39 | 3.0 | 3.0 | 0.00 | 0.65 | 0.65 | 60 | 1012.1 |
| 20260506202127 | 61 | 69 | 3.0 | 3.0 | 0.00 | 0.65 | 0.65 | 64 | 1012.1 |
| 20260506201625 | 61 | 322 | 2.0 | 4.0 | 0.00 | 0.65 | 0.65 | 63 | 1011.9 |
| 20260506201121 | 61 | 295 | 2.0 | 3.0 | 0.00 | 0.65 | 0.65 | 63 | 1012.2 |
| 20260506200617 | 61 | 6 | 2.0 | 3.0 | 0.00 | 0.65 | 0.65 | 63 | 1012.5 |
| 20260506200114 | 61 | 62 | 2.0 | 2.0 | 0.00 | 0.65 | 0.65 | 63 | 1012.5 |
| 20260506195611 | 61 | 48 | 4.0 | 6.0 | 0.00 | 0.65 | 0.65 | 61 | 1012.4 |
| 20260506195107 | 61 | 352 | 3.0 | 4.0 | 0.00 | 0.65 | 0.65 | 63 | 1012.7 |
| 20260506194605 | 62 | 2 | 3.0 | 4.0 | 0.00 | 0.65 | 0.65 | 62 | 1012.3 |
| 20260506194101 | 62 | 80 | 1.0 | 6.0 | 0.00 | 0.65 | 0.65 | 64 | 1013.0 |
| 20260506193559 | 62 | 126 | 2.0 | 2.0 | 0.00 | 0.65 | 0.65 | 61 | 1012.6 |
| 20260506193056 | 62 | 61 | 4.0 | 7.0 | 0.00 | 0.65 | 0.65 | 61 | 1012.5 |
| 20260506192553 | 62 | 3 | 0.0 | 2.0 | 0.00 | 0.65 | 0.65 | 64 | 1012.5 |
| 20260506192049 | 62 | 4 | 4.0 | 4.0 | 0.00 | 0.65 | 0.65 | 64 | 1012.5 |
| 20260506191545 | 62 | 52 | 2.0 | 2.0 | 0.00 | 0.65 | 0.65 | 68 | 1012.3 |
| 20260506191041 | 60 | 104 | 1.0 | 2.0 | 0.00 | 0.65 | 0.65 | 64 | 1012.0 |
| 20260506190538 | 61 | 46 | 4.0 | 7.0 | 0.00 | 0.65 | 0.65 | 65 | 1012.2 |
| 20260506190035 | 61 | 30 | 4.0 | 6.0 | 0.00 | 0.65 | 0.65 | 63 | 1012.2 |
| 20260506185533 | 61 | 9 | 5.0 | 9.0 | 0.00 | 0.65 | 0.65 | 66 | 1012.3 |
| 20260506185029 | 61 | 350 | 3.0 | 4.0 | 0.00 | 0.65 | 0.65 | 63 | 1012.6 |
| 20260506184527 | 61 | 106 | 0.0 | 3.0 | 0.00 | 0.65 | 0.65 | 63 | 1012.4 |
| 20260506184024 | 61 | 28 | 1.0 | 4.0 | 0.00 | 0.65 | 0.65 | 61 | 1012.3 |
| 20260506183519 | 61 | 340 | 5.0 | 6.0 | 0.00 | 0.65 | 0.65 | 65 | 1012.2 |
| 20260506183016 | 62 | 345 | 4.0 | 4.0 | 0.00 | 0.65 | 0.65 | 65 | 1011.9 |
| 20260506182514 | 61 | 102 | 3.0 | 6.0 | 0.00 | 0.65 | 0.65 | 67 | 1012.1 |
| 20260506182011 | 62 | 35 | 1.0 | 6.0 | 0.00 | 0.65 | 0.65 | 64 | 1012.2 |
| 20260506181509 | 61 | 39 | 2.0 | 6.0 | 0.00 | 0.65 | 0.65 | 65 | 1012.3 |
| 20260506181005 | 60 | 43 | 5.0 | 7.0 | 0.00 | 0.65 | 0.65 | 65 | 1012.4 |
| 20260506180502 | 60 | 46 | 1.0 | 3.0 | 0.00 | 0.65 | 0.65 | 63 | 1012.3 |
| 20260506175958 | 60 | 335 | 2.0 | 6.0 | 0.00 | 0.65 | 0.65 | 68 | 1012.1 |
| 20260506175455 | 60 | 35 | 4.0 | 6.0 | 0.00 | 0.65 | 0.65 | 66 | 1011.9 |
| 20260506174951 | 61 | 130 | 2.0 | 4.0 | 0.00 | 0.65 | 0.65 | 64 | 1012.1 |
| 20260506174450 | 60 | 108 | 3.0 | 4.0 | 0.00 | 0.65 | 0.65 | 70 | 1012.0 |
| 20260506173946 | 60 | 129 | 3.0 | 4.0 | 0.00 | 0.65 | 0.65 | 73 | 1012.2 |
| 20260506173444 | 60 | 357 | 7.0 | 10.0 | 0.00 | 0.65 | 0.65 | 70 | 1012.3 |
| 20260506172940 | 61 | 73 | 6.0 | 7.0 | 0.00 | 0.65 | 0.65 | 67 | 1012.0 |
| 20260506172438 | 59 | 242 | 1.0 | 2.0 | 0.00 | 0.65 | 0.65 | 69 | 1012.2 |
| 20260506171934 | 60 | 39 | 5.0 | 7.0 | 0.00 | 0.65 | 0.65 | 65 | 1012.3 |
| 20260506171432 | 60 | 135 | 4.0 | 7.0 | 0.00 | 0.65 | 0.65 | 69 | 1012.4 |
| 20260506170929 | 60 | 109 | 1.0 | 4.0 | 0.00 | 0.65 | 0.65 | 76 | 1012.5 |
| 20260506170425 | 60 | 87 | 4.0 | 7.0 | 0.00 | 0.65 | 0.65 | 70 | 1012.2 |
| 20260506165924 | 59 | 37 | 2.0 | 4.0 | 0.00 | 0.65 | 0.65 | 73 | 1012.7 |
| 20260506165423 | 59 | 39 | 1.0 | 3.0 | 0.00 | 0.65 | 0.65 | 71 | 1012.6 |
| 20260506164918 | 59 | 77 | 4.0 | 6.0 | 0.00 | 0.65 | 0.65 | 73 | 1012.8 |
| 20260506164415 | 59 | 22 | 1.0 | 8.0 | 0.00 | 0.65 | 0.65 | 72 | 1012.4 |
| 20260506163914 | 58 | 114 | 3.0 | 6.0 | 0.00 | 0.65 | 0.65 | 72 | 1012.5 |
| 20260506163414 | 58 | 43 | 4.0 | 8.0 | 0.00 | 0.65 | 0.65 | 69 | 1012.6 |
| 20260506162909 | 57 | 58 | 3.0 | 8.0 | 0.00 | 0.65 | 0.65 | 74 | 1012.6 |
| 20260506162407 | 58 | 18 | 4.0 | 4.0 | 0.00 | 0.65 | 0.65 | 72 | 1012.7 |
| 20260506161904 | 57 | 7 | 6.0 | 6.0 | 0.00 | 0.65 | 0.65 | 73 | 1012.5 |
| 20260506161401 | 58 | 87 | 1.0 | 3.0 | 0.00 | 0.65 | 0.65 | 77 | 1012.3 |
| 20260506160859 | 57 | 49 | 2.0 | 2.0 | 0.00 | 0.65 | 0.65 | 77 | 1012.5 |
| 20260506160356 | 56 | 92 | 1.0 | 2.0 | 0.00 | 0.65 | 0.65 | 76 | 1012.4 |
| 20260506155854 | 56 | 84 | 2.0 | 6.0 | 0.00 | 0.65 | 0.65 | 78 | 1012.4 |